Home   Weather   Toledo   Past weeks
Flag for USA

Past Weather in Toledo, Ohio, USA — Yesterday and Last 2 Weeks

Now
73 °F

Overcast.


Feels Like: 75 °F
Forecast: 78 / 68 °F
Wind: No wind

Location: Toledo Suburban Airport

Current Time: May 27, 2020 at 10:05:55 pm

Latest Report: May 27, 2020 at 9:16 pm


Visibility: 10 mi

Pressure: 29.96 "Hg

Humidity: 73%

Dew Point: 64 °F

Location of ToledoLocation

Past Weather in Toledo — Graph

°F

Toledo Temperature Yesterday

Maximum temperature yesterday: 87 °F (at 2:15 pm)
Minimum temperature yesterday: 61 °F (at 5:55 am)
Average temperature yesterday: 74 °F

High & Low Weather Summary for the Past Weeks

 TemperatureHumidityPressure
High87 °F (May 26, 2:15 pm)99% (May 14, 11:56 pm)30.37 "Hg (May 14, 11:56 pm)
Low30 °F (May 13, 6:55 am)29% (May 12, 8:36 pm)29.79 "Hg (May 18, 12:35 pm)
Average60 °F81%30.04 "Hg
* Reported May 12 8:36 pm — May 27 8:16 pm, Toledo. Weather by CustomWeather, © 2020

Note: Actual official high and low records may vary slightly from our data, if they occured in-between our weather recording intervals... More about our weather records

Toledo Weather History for the Previous 24 Hours

Scroll right to see more
 ConditionsComfort  
Time TempWeatherWind HumidityBarometerVisibility
8:16 pm
Wed, May 27
74 °FMostly cloudy.3 mph74%29.97 "Hg10 mi
7:55 pm75 °FCloudy.5 mph75%29.97 "Hg10 mi
7:36 pm76 °FMore clouds than sun.3 mph73%29.97 "Hg10 mi
7:16 pm76 °FMostly cloudy.3 mph72%29.96 "Hg10 mi
6:56 pm77 °FMore clouds than sun.3 mph69%29.95 "Hg10 mi
6:36 pm77 °FCloudy.No wind68%29.96 "Hg10 mi
6:15 pm78 °FLight rain. Cloudy.No wind60%29.96 "Hg10 mi
5:55 pm81 °FMore clouds than sun.12 mph55%29.96 "Hg10 mi
5:36 pm83 °FScattered clouds.9 mph52%29.95 "Hg10 mi
5:15 pm83 °FScattered clouds.6 mph56%29.95 "Hg10 mi
4:55 pm83 °FScattered clouds.6 mph58%29.95 "Hg10 mi
4:35 pm82 °FSunny.9 mph59%29.95 "Hg10 mi
4:15 pm81 °FScattered clouds.9 mph63%29.96 "Hg10 mi
3:35 pm80 °FScattered clouds.9 mph67%29.98 "Hg10 mi
3:16 pm79 °FScattered clouds.8 mph67%29.99 "Hg10 mi
2:55 pm79 °FScattered clouds.10 mph68%30.00 "Hg10 mi
2:36 pm79 °FSunny.5 mph68%30.00 "Hg10 mi
2:16 pm78 °FSunny.6 mph71%30.00 "Hg10 mi
1:55 pm77 °FSunny.5 mph72%30.00 "Hg10 mi
1:35 pm76 °FSunny.6 mph72%30.01 "Hg10 mi
1:15 pm76 °FSunny.8 mph72%30.01 "Hg10 mi
12:55 pm76 °FSunny.6 mph72%30.01 "Hg10 mi
12:35 pm76 °FSunny.7 mph71%30.01 "Hg10 mi
12:15 pm76 °FSunny.5 mph71%30.01 "Hg10 mi
11:55 am76 °FSunny.No wind71%30.01 "Hg10 mi
11:36 am76 °FSunny.5 mph70%30.01 "Hg10 mi
11:15 am76 °FSunny.6 mph71%30.02 "Hg10 mi
10:56 am75 °FSunny.6 mph72%30.02 "Hg10 mi
10:35 am74 °FSunny.3 mph72%30.02 "Hg10 mi
10:15 am74 °FSunny.5 mph72%30.02 "Hg10 mi
9:55 am74 °FSunny.6 mph72%30.02 "Hg10 mi
9:35 am73 °FSunny.6 mph72%30.02 "Hg10 mi
9:15 am73 °FSunny.6 mph74%30.02 "Hg10 mi
8:55 am71 °FSunny.6 mph76%30.02 "Hg10 mi
8:36 am71 °FSunny.6 mph77%30.02 "Hg10 mi
8:15 am70 °FSunny.3 mph80%30.02 "Hg10 mi
7:56 am69 °FSunny.3 mph82%30.02 "Hg10 mi
7:35 am69 °FSunny.5 mph84%30.02 "Hg10 mi
7:16 am66 °FSunny.3 mph93%30.02 "Hg10 mi
6:55 am64 °FSunny.3 mph97%30.02 "Hg10 mi
6:35 am64 °FSunny.No wind98%30.01 "Hg10 mi
6:16 am63 °FSunny.No wind98%30.00 "Hg10 mi
5:55 am63 °FClear.No wind99%30.00 "Hg10 mi
5:36 am63 °FClear.No wind99%30.01 "Hg7 mi
5:15 am63 °FClear.No wind99%30.01 "Hg7 mi
4:55 am63 °FClear.No wind99%30.01 "Hg7 mi
4:35 am63 °FClear.No wind99%30.01 "Hg7 mi
4:15 am63 °FClear.No wind98%30.01 "Hg7 mi
3:56 am64 °FClear.No wind99%30.02 "Hg7 mi
3:35 am63 °FClear.No wind99%30.01 "Hg7 mi
3:16 am64 °FClear.No wind99%30.01 "Hg7 mi
2:55 am64 °FClear.No wind98%30.02 "Hg10 mi
2:36 am64 °FClear.No wind98%30.02 "Hg10 mi
1:56 am65 °FClear.No wind97%30.02 "Hg10 mi
1:35 am65 °FClear.No wind95%30.02 "Hg10 mi
12:55 am67 °FClear.3 mph90%30.02 "Hg10 mi
12:36 am68 °FClear.3 mph87%30.02 "Hg10 mi
12:16 am69 °FClear.3 mph86%30.02 "Hg10 mi
11:55 pm
Tue, May 26
69 °FClear.3 mph82%30.02 "Hg10 mi
11:35 pm70 °FClear.3 mph78%30.03 "Hg10 mi
11:15 pm71 °FClear.3 mph77%30.03 "Hg10 mi
10:55 pm71 °FClear.5 mph76%30.03 "Hg10 mi
10:35 pm72 °FClear.No wind73%30.03 "Hg10 mi
Weather by CustomWeather, © 2020

See weather overview

Advertising